This is the latest recevied weather packets stored in our database for station/object K1ZK-13. If no packets are shown the sender has not sent any weather packets the latest 10 day(s).
| Time | Temp. | Humidity | Pressure | Rain* | Wind** | Luminosity | Snow |
|---|---|---|---|---|---|---|---|
| 1777831880 | 8.89° C | 50% | 1009.8 hPa | 0 mm | - | 121 W/m² | - |
| 1777831577 | 9.44° C | 50% | 1009.7 hPa | 0 mm | - | 175 W/m² | - |
| 1777831275 | 9.44° C | 51% | 1009.7 hPa | 0 mm | - | 274 W/m² | - |
| 1777830971 | 8.89° C | 52% | 1009.8 hPa | 0 mm | - | 250 W/m² | - |
| 1777830669 | 8.89° C | 52% | 1009.9 hPa | 0 mm | - | 208 W/m² | - |
| 1777830365 | 9.44° C | 52% | 1009.8 hPa | 0 mm | - | 170 W/m² | - |
| 1777830062 | 10° C | 54% | 1009.9 hPa | 0 mm | - | 220 W/m² | - |
| 1777829757 | 9.44° C | 53% | 1010 hPa | 0 mm | - | 267 W/m² | - |
| 1777829454 | 8.89° C | 54% | 1009.9 hPa | 0 mm | - | 328 W/m² | - |
| 1777829151 | 8.89° C | 52% | 1009.9 hPa | 0 mm | - | 315 W/m² | - |
| 1777828848 | 8.89° C | 55% | 1010 hPa | 0 mm | - | 264 W/m² | - |
| 1777828544 | 8.89° C | 54% | 1009.9 hPa | 0 mm | - | 168 W/m² | - |
| 1777828242 | 8.89° C | 55% | 1010 hPa | 0 mm | - | 172 W/m² | - |
| 1777827938 | 8.89° C | 54% | 1010 hPa | 0 mm | - | 206 W/m² | - |
| 1777827636 | 8.89° C | 52% | 1010.1 hPa | 0 mm | - | 287 W/m² | - |
| 1777827333 | 8.33° C | 56% | 1010.2 hPa | 0 mm | - | 363 W/m² | - |
| 1777827029 | 8.33° C | 55% | 1010.1 hPa | 0 mm | - | 218 W/m² | - |
| 1777826726 | 8.33° C | 56% | 1010.2 hPa | 0 mm | - | 150 W/m² | - |
| 1777826423 | 8.33° C | 55% | 1010.3 hPa | 0 mm | - | 162 W/m² | - |
| 1777826120 | 8.33° C | 57% | 1010.3 hPa | 0 mm | - | 206 W/m² | - |
| 1777825817 | 8.33° C | 56% | 1010.3 hPa | 0 mm | - | 253 W/m² | - |
| 1777825514 | 8.33° C | 57% | 1010.1 hPa | 0 mm | - | 224 W/m² | - |
| 1777825212 | 8.33° C | 55% | 1010.3 hPa | 0 mm | - | 194 W/m² | - |
| 1777824909 | 8.33° C | 59% | 1010.4 hPa | 0 mm | - | 180 W/m² | - |
| 1777824604 | 8.33° C | 58% | 1010.6 hPa | 0 mm | - | 193 W/m² | - |
* Rain latest hour (hover to see other rain measurements)
** Current wind speed in m/s (hover to see current wind gust speed)